Station JMPN7 - 8658163 - Wrightsville Beach, NC Image indicating link to RSS feed of recent meteorological observations for station JMPN7


Conditions at JMPN7 as of
(1:00 pm EDT)
1700 GMT on 05/22/2024:
     

Click on the graph icon in the table below to see a time series plot of the last five days of that observation.

5-day plot - Wind Direction Wind Direction (WDIR): SE ( 130 deg true )
5-day plot - Wind Speed Wind Speed (WSPD):4.6 m/s
5-day plot - Wind Gust Wind Gust (GST):5.1 m/s
5-day plot - Atmospheric Pressure Atmospheric Pressure (PRES):1017.8 mb
5-day plot - Pressure Tendency Pressure Tendency (PTDY): -0.4 mb ( Falling )
5-day plot - Water Temperature Water Temperature (WTMP): 23.7 °C
5-day plot - Wind Speed at 10 Meters Wind Speed at 10 meters (WSPD10M): 5 m/s
5-day plot - Wind Speed at 20 Meters Wind Speed at 20 meters (WSPD20M): 5 m/s
5-day plot -  Wind Speed, Wind Gust and Atmospheric Pressure Combined plot of Wind Speed, Gust, and Air Pressure
NOS Water Level Observation Network Water Level
Previous observations
TIME
(EDT)
5-day plot - Wind Direction
WDIR
 
5-day plot - Wind Speed
WSPD
m/s
5-day plot - Wind Gust
GST
m/s
5-day plot - Wave Height
WVHT
m
5-day plot - Dominant Wave Period
DPD
sec
5-day plot - Average Wave Period
APD
sec
5-day plot - Mean Wave Direction
MWD
 
5-day plot - Atmospheric Pressure
PRES
mb
5-day plot - Pressure Tendency
PTDY
mb
5-day plot - Air Temperature
ATMP
°C
5-day plot - Water Temperature
WTMP
°C
5-day plot - Dew Point
DEWP
°C
5-day plot - Salinity
SAL
psu
5-day plot - Visibility
VIS
km
5-day plot - Tide (above MLLW)
TIDE
m
2024-05-22 12:54 pm SE 5.1 5.1----1017.9-- 23.6----
2024-05-22 12:48 pm SE 4.6 5.1------- 23.5----
2024-05-22 12:42 pm SE 5.1 5.1------- 23.5----
2024-05-22 12:36 pm SE 4.6 4.6------- 23.5----
2024-05-22 12:30 pm SE 4.1 4.6------------
2024-05-22 12:24 pm SE 4.1 5.1------------
2024-05-22 12:18 pmESE 4.6 5.1------ 22.6 23.5----
2024-05-22 12:12 pmESE 4.6 5.1------ 22.5 23.5----
2024-05-22 12:06 pmESE 4.6 5.7------ 22.5 23.5----
2024-05-22 12:00 pmESE 5.7 6.2----1017.9 -0.3 22.3 23.5----
2024-05-22 11:54 amESE 5.1 6.2----1018.0- 22.4 23.5----
2024-05-22 11:48 amESE 5.7 6.2----1018.1- 22.3 23.5----
2024-05-22 11:42 amESE 5.1 5.7----1018.1- 22.4 23.6----
2024-05-22 11:36 amESE 5.1 5.7----1018.1- 22.4 23.6----
2024-05-22 11:30 amESE 5.1 5.1----1018.1- 22.4 23.6----
2024-05-22 11:24 amESE 4.6 4.6----1018.3- 22.5 23.5----
2024-05-22 11:18 amESE 4.1 5.1----1018.3- 22.4 23.4----
2024-05-22 11:12 amESE 4.6 4.6----1018.3- 22.4 23.4----
2024-05-22 11:06 amESE 4.1 4.6----1018.3- 22.4 23.4----
2024-05-22 11:00 amESE 4.6 5.1----1018.2 +0.3 22.3 23.3----
2024-05-22 10:54 amESE 4.6 4.6----1018.1- 22.1 23.3----
2024-05-22 10:48 amESE 4.6 4.6----1018.1-- 23.3----
2024-05-22 10:42 am E 4.1 4.1----1018.2-- 23.2----
2024-05-22 10:36 am E 3.6 3.6----1018.3-- 23.1----
2024-05-22 10:30 amESE 3.1 3.6------------
2024-05-22 10:24 am E 3.1 3.1------------
2024-05-22 10:18 am E 2.6 2.6------------
2024-05-22 10:12 am E 2.6 2.6------------
2024-05-22 10:06 am E 2.6 3.1------------
2024-05-22 10:00 am E 3.1 3.6----1018.2 +0.7 21.9 23.0----
2024-05-22 09:54 am E 3.1 3.6----1018.3- 22.1 23.0----
2024-05-22 09:48 am E 2.6 3.1----1018.3-- 22.9----
2024-05-22 09:42 am E 2.6 2.6----1018.3-- 22.8----
2024-05-22 09:36 am E 1.5 2.1----1018.4-- 22.8----
2024-05-22 09:30 am NE 1.5 2.6------------
2024-05-22 09:24 am NE 2.1 2.1------------
2024-05-22 09:18 am N 1.5 2.6----1018.4-- 22.6----
2024-05-22 09:12 amNNE 1.0 2.1----1018.4-- 22.5----
2024-05-22 09:06 am N 1.5 2.6----1018.3-- 22.5----
2024-05-22 09:00 am N 2.6 3.1----1018.2 +1.3 22.0 22.5----
2024-05-22 08:54 amNNW 2.1 2.6----1018.1- 21.8 22.5----
2024-05-22 08:48 amNNW 1.5 2.1----1018.1- 21.8 22.5----
2024-05-22 08:42 am NW 1.0 1.5----1018.1- 21.6 22.5----
2024-05-22 08:36 am NW 0.5 1.0----1017.9- 21.5 22.5----
2024-05-22 08:30 am NW 1.0 2.1----1018.0- 21.3 22.5----
2024-05-22 08:24 am NW 1.5 2.1----1018.0- 21.1 22.5----
2024-05-22 08:18 am NW 2.1 2.6----1018.0- 20.9 22.5----
2024-05-22 08:12 am NW 2.1 2.6----1018.1- 20.6 22.5----
2024-05-22 08:06 am NW 2.1 2.6----1018.0- 20.5 22.5----
2024-05-22 08:00 amNNW 2.1 2.1----1017.9 +1.3 20.2 22.5----
2024-05-22 07:54 am NW 1.0 1.5----1017.8- 20.1 22.5----
2024-05-22 07:48 am NW 1.5 2.1----1017.8- 19.8 22.5----
2024-05-22 07:42 am NW 1.5 2.1----1017.8- 19.7 22.5----
2024-05-22 07:36 am NW 2.1 2.1----1017.8- 19.5 22.5----
2024-05-22 07:30 amWNW 2.1 2.6----1017.8- 19.3 22.5----
2024-05-22 07:24 amWNW 2.6 3.1----1017.8- 19.1 22.6----
2024-05-22 07:18 amWNW 3.1 3.6----1017.8- 19.1 22.6----
2024-05-22 07:12 amWNW 2.6 3.1----1017.7- 19.1 22.6----
2024-05-22 07:06 amWNW 2.6 2.6----1017.5- 19.2 22.6----
2024-05-22 07:00 amWNW 2.6 2.6----1017.5 +1.2 19.1 22.6----
2024-05-22 06:54 am NW 2.1 2.6----1017.4- 19.1 22.6----
2024-05-22 06:48 am NW 1.5 2.1----1017.2- 19.0 22.6----
2024-05-22 06:42 am NW 1.5 2.1----1017.1- 18.9 22.6----
2024-05-22 06:36 am NW 2.1 2.6----1017.1- 18.8 22.6----
2024-05-22 06:30 am NW 2.1 2.6----1017.0- 18.8 22.6----
2024-05-22 06:24 am NW 2.6 2.6----1016.9- 18.8 22.6----
2024-05-22 06:18 am NW 2.1 2.6----1016.9- 18.7 22.6----
2024-05-22 06:12 am NW 2.6 2.6----1016.9- 18.7 22.6----
2024-05-22 06:06 am NW 2.1 2.6----1016.9- 18.7 22.6----
2024-05-22 06:00 am NW 2.6 2.6----1016.9 +1.1 18.6 22.6----
2024-05-22 05:54 am NW 2.6 2.6----1016.9- 18.7 22.7----
2024-05-22 05:48 am NW 2.1 2.6----1016.8- 18.8 22.7----
2024-05-22 05:42 am NW 2.6 2.6----1016.9- 18.8 22.7----
2024-05-22 05:36 am NW 2.6 3.1----1016.9- 18.9 22.7----
2024-05-22 05:30 am NW 2.6 3.1----1016.8- 18.9 22.7----
2024-05-22 05:24 am NW 2.1 2.1----1016.7- 19.0 22.6----
2024-05-22 05:18 am NW 2.1 2.6----1016.7- 19.1 22.6----
2024-05-22 05:12 am NW 2.6 2.6----1016.7- 19.3 22.6----
2024-05-22 05:06 am NW 1.5 2.1----1016.5- 19.6 22.7----
2024-05-22 05:00 am NW 1.5 2.1----1016.6 +0.5 19.8 22.7----
2024-05-22 04:54 am NW 1.5 2.1----1016.6- 19.7 22.7----
2024-05-22 04:48 am NW 1.5 2.1----1016.5- 19.7 22.7----
2024-05-22 04:42 am NW 2.1 2.1----1016.4- 19.7 22.8----
2024-05-22 04:36 am NW 1.5 2.1----1016.4- 19.9 22.7----
2024-05-22 04:30 am NW 1.5 2.6----1016.4- 20.0 22.8----
2024-05-22 04:24 am W 1.5 2.1----1016.6- 20.3 22.7----
2024-05-22 04:18 am W 0.5 1.0----1016.6- 20.4 22.7----
2024-05-22 04:12 amWSW 1.0 1.0----1016.5- 20.3 22.8----
2024-05-22 04:06 am- 0.0 0.5----1016.5- 20.6 22.7----
2024-05-22 04:00 am- 0.0 1.0----1016.3 +0.0 21.0 22.8----
2024-05-22 03:54 amSSE 1.0 1.5----1016.0- 21.0 22.8----
2024-05-22 03:48 amSSE 1.5 1.5----1015.9- 20.9 22.8----
2024-05-22 03:42 amSSE 1.0 2.1----1015.8- 20.9 22.8----
2024-05-22 03:36 am SE 1.5 2.1----1015.8- 20.9 22.8----
2024-05-22 03:30 amSSE 1.5 2.1----1015.7- 20.9 22.8----
2024-05-22 03:24 am SE 2.1 2.6----1015.7- 20.9 22.8----
2024-05-22 03:18 amSSE 1.5 2.1----1015.7- 20.9 22.8----
2024-05-22 03:12 am SE 1.5 2.1----1015.7- 20.9 22.8----
2024-05-22 03:06 amSSE 1.5 2.6----1015.8- 20.9 22.9----
2024-05-22 03:00 amSSE 2.1 2.6----1015.8 -0.7 20.9 22.9----
2024-05-22 02:54 am S 2.1 2.6----1015.8- 20.8 23.0----
2024-05-22 02:48 am S 1.5 2.1----1015.9- 20.8 23.1----
2024-05-22 02:42 am SW 1.5 2.1----1015.9- 20.8 23.1----
2024-05-22 02:36 amSSW 1.5 2.1----1016.0- 20.8 23.1----
2024-05-22 02:30 amSSW 1.5 2.1----1016.2- 20.9 23.0----
2024-05-22 02:24 amSSW 2.1 3.1----1016.3- 20.9 23.1----
2024-05-22 02:18 am S 1.5 3.1----1016.2- 20.9 23.1----
2024-05-22 02:12 am S 2.1 2.6----1016.2- 20.9 23.1----
2024-05-22 02:06 am S 2.1 4.1----1016.3- 20.9 23.1----
2024-05-22 02:00 amSSE 2.6 3.1----1016.1 -0.3 21.0 23.1----
2024-05-22 01:54 am SE 3.1 4.6----1016.3- 20.8 23.1----
2024-05-22 01:48 amESE 2.6 3.1----1016.4- 20.8 23.1----
2024-05-22 01:42 amSSE 2.6 4.1----1016.4- 20.9 23.1----
2024-05-22 01:36 am SE 3.6 4.1----1016.5- 20.9 23.1----
2024-05-22 01:30 amSSE 2.6 3.6----1016.5- 21.1 23.1----
2024-05-22 01:24 am SE 2.6 2.6----1016.4- 21.0 23.0----
2024-05-22 01:18 am SE 2.1 2.6----1016.4- 21.0 23.0----
2024-05-22 01:12 am SE 2.1 2.6----1016.4- 20.9 23.0----
2024-05-22 01:06 am SE 2.1 2.6----1016.4- 21.0 23.1----
2024-05-22 01:00 am SE 2.1 2.6----1016.4 +0.0 20.9 23.0----
2024-05-22 12:54 amESE 2.6 3.1----1016.4- 21.0 23.0----
2024-05-22 12:48 am SE 2.1 2.6----1016.4- 21.0 23.0----
2024-05-22 12:42 am SE 2.1 3.1----1016.4- 21.0 23.0----
2024-05-22 12:36 amESE 2.6 2.6----1016.3- 21.0 23.0----
2024-05-22 12:30 am SE 2.1 3.1----1016.4- 20.9 23.1----
2024-05-22 12:24 am SE 2.6 3.1----1016.4- 20.9 23.1----
2024-05-22 12:18 am SE 2.6 3.1----1016.4- 20.9 23.1----
2024-05-22 12:12 am SE 2.1 2.6----1016.4- 20.9 23.1----
2024-05-22 12:06 am SE 2.6 3.1----1016.4- 21.0 23.1----
2024-05-22 12:00 am SE 2.1 2.6----1016.5 +0.0 20.9 23.1----
2024-05-21 11:54 pm SE 2.6 3.1----1016.4- 20.9 23.1----
2024-05-21 11:48 pm SE 2.1 2.6----1016.4- 21.0 23.1----
2024-05-21 11:42 pm SE 2.1 2.6----1016.4- 20.9 23.2----
2024-05-21 11:36 pm SE 2.1 2.6----1016.4- 20.9 23.2----
2024-05-21 11:30 pm SE 2.6 3.1----1016.3- 21.0 23.2----
2024-05-21 11:24 pm SE 2.1 2.6----1016.3- 20.9 23.1----
2024-05-21 11:18 pm SE 1.5 2.1----1016.4- 21.0 23.2----
2024-05-21 11:12 pmSSE 1.5 1.5----1016.4- 20.9 23.2----
2024-05-21 11:06 pm SE 1.0 1.5----1016.4- 21.0 23.2----
2024-05-21 11:00 pmSSE 1.0 1.5----1016.4 +0.4 21.0 23.2----
2024-05-21 10:54 pmSSE 1.5 1.5----1016.4- 20.9 23.2----
2024-05-21 10:48 pm SE 1.0 1.5----1016.4- 21.0 23.2----
2024-05-21 10:42 pm SE 1.0 1.5----1016.5- 20.9 23.2----
2024-05-21 10:36 pm SE 0.5 2.1----1016.5- 20.9 23.2----
2024-05-21 10:30 pm SE 1.0 2.1----1016.5- 20.9 23.2----
2024-05-21 10:24 pm SE 1.0 1.5----1016.4- 20.9 23.2----
2024-05-21 10:18 pm SE 1.5 1.5----1016.4- 20.9 23.2----
2024-05-21 10:12 pm SE 1.0 1.5----1016.5- 21.0 23.2----
2024-05-21 10:06 pm SE 1.5 1.5----1016.4- 20.9 23.2----
2024-05-21 10:00 pmESE 1.0 2.1----1016.4 +0.5 21.0 23.2----
2024-05-21 09:54 pm SE 1.5 1.5----1016.3- 20.9 23.3----
2024-05-21 09:48 pm SE 1.5 2.1----1016.3- 21.0 23.3----
2024-05-21 09:42 pm SE 1.5 2.1----1016.3- 21.0 23.3----
2024-05-21 09:36 pm SE 1.5 2.1----1016.3- 20.9 23.3----
2024-05-21 09:30 pm SE 1.5 2.1----1016.3- 21.0 23.3----
2024-05-21 09:24 pm SE 2.1 2.6----1016.3- 21.0 23.3----
2024-05-21 09:18 pm SE 2.1 2.1----1016.3- 21.1 23.3----
2024-05-21 09:12 pmSSE 1.5 1.5----1016.3- 21.0 23.3----
2024-05-21 09:06 pm SE 1.5 1.5----1016.3- 21.1 23.3----
2024-05-21 09:00 pm SE 1.5 1.5----1016.3 +0.5 21.1 23.3----
2024-05-21 08:54 pmESE 1.5 2.1----1016.4- 21.1 23.2----
2024-05-21 08:48 pmESE 1.5 2.6----1016.3- 21.1 23.3----
2024-05-21 08:42 pmESE 2.1 2.6----1016.2- 21.2 23.2----
2024-05-21 08:36 pmESE 2.6 3.1----1016.2- 21.2 23.2----
2024-05-21 08:30 pmESE 2.6 2.6----1016.2- 21.2 23.2----
2024-05-21 08:24 pmESE 2.6 2.6----1016.1- 21.2 23.2----
2024-05-21 08:18 pmESE 2.6 3.1----1016.1- 21.2 23.2----
2024-05-21 08:12 pm E 2.6 3.6----1016.0- 21.2 23.2----
2024-05-21 08:06 pm E 2.6 3.1----1016.1- 21.2 23.2----
2024-05-21 08:00 pmESE 3.1 3.6----1016.0 +0.7 21.2 23.2----
2024-05-21 07:54 pm E 3.6 4.1----1016.0- 21.2 23.3----
2024-05-21 07:48 pm E 4.1 4.6----1016.0- 21.2 23.3----
2024-05-21 07:42 pm E 4.1 4.6----1016.0- 21.3 23.3----
2024-05-21 07:36 pmESE 4.6 5.1----1016.0- 21.3 23.2----
2024-05-21 07:30 pm E 4.6 5.7----1015.9- 21.4 23.3----
2024-05-21 07:24 pmESE 4.6 5.1----1015.9- 21.4 23.3----
2024-05-21 07:00 pm E 3.6 4.1----1015.9 +0.3 21.6 23.5----
2024-05-21 06:54 pm E 3.6 4.1----1016.0- 21.6 23.5----
2024-05-21 06:48 pmESE 3.6 4.6----1015.9- 21.7 23.6----
2024-05-21 06:42 pmESE 3.6 4.6----1016.0- 21.8 23.5----
2024-05-21 06:36 pmESE 4.1 4.6----1016.1- 21.8 23.5----
2024-05-21 06:30 pmESE 4.1 5.1----1016.0- 21.8 23.5----
2024-05-21 06:24 pmESE 4.1 4.6----1016.0- 21.8 23.5----
2024-05-21 06:18 pm E 4.1 4.6----1016.0- 21.6 23.6----
2024-05-21 06:12 pm E 4.1 5.1----1015.9- 21.6 23.6----
2024-05-21 06:06 pmESE 5.1 5.7----1015.8- 21.6 23.6----
2024-05-21 06:00 pmESE 5.1 5.7----1015.8 -0.3 21.5 23.6----
2024-05-21 05:54 pmESE 4.6 5.1----1015.8- 21.6 23.5----
2024-05-21 05:48 pm E 4.6 5.7----1015.7- 21.3 23.5----
2024-05-21 05:42 pmESE 5.1 5.7----1015.7- 21.4 23.4----
2024-05-21 05:36 pm E 5.1 5.7----1015.7- 21.3 23.4----
2024-05-21 05:30 pm E 4.6 5.7----1015.6-- 23.4----
2024-05-21 05:24 pmESE 5.7 6.2----1015.5-- 23.4----
2024-05-21 05:18 pm E 5.7 6.2----1015.5-- 23.3----
2024-05-21 05:12 pm E 5.7 6.7----1015.5-- 23.3----
2024-05-21 05:06 pmESE 6.2 6.7----1015.4-- 23.3----
2024-05-21 05:00 pmESE 5.7 6.7----1015.3 -1.0 21.1 23.3----
2024-05-21 04:54 pmESE 6.2 7.2----1015.3- 21.1 23.3----
2024-05-21 04:48 pmESE 5.7 6.7----1015.4-- 23.3----
2024-05-21 04:42 pmESE 6.2 6.7----1015.4-- 23.3----
2024-05-21 04:36 pmESE 6.2 6.7----1015.5-- 23.3----
2024-05-21 04:30 pmESE 5.7 6.7----1015.5-------
2024-05-21 04:24 pmESE 6.2 6.7----1015.4-------
2024-05-21 04:18 pmESE 5.7 6.7----1015.4-- 23.3----
2024-05-21 04:12 pmESE 6.2 6.7----1015.5-- 23.2----
2024-05-21 04:06 pmESE 5.7 6.2----1015.5-- 23.3----
2024-05-21 04:00 pmESE 5.7 6.2----1015.6 -1.1 20.9 23.2----
2024-05-21 03:54 pmESE 5.7 6.2----1015.6- 20.8 23.2----
2024-05-21 03:48 pmESE 6.2 7.2----1015.6-- 23.2----
2024-05-21 03:42 pmESE 6.2 6.7----1015.8-- 23.2----
2024-05-21 03:36 pmESE 6.7 7.2----1015.8-- 23.2----
2024-05-21 03:30 pmESE 6.2 6.7------- 23.2----
2024-05-21 03:24 pmESE 6.2 6.7------- 23.1----
2024-05-21 03:18 pmESE 5.7 6.2----1015.9- 20.5 23.1----
2024-05-21 03:12 pmESE 5.7 6.2----1015.9- 20.6 23.1----
2024-05-21 03:06 pmESE 5.1 6.2----1016.0- 20.6 23.1----
2024-05-21 03:00 pmESE 4.6 5.1----1016.1 -1.0 20.6 23.1----
2024-05-21 02:54 pmESE 4.6 5.1----1016.1- 20.4 23.1----
2024-05-21 02:48 pmESE 4.1 5.1----1016.2- 20.4 23.0----
2024-05-21 02:42 pmESE 4.1 5.1----1016.2- 20.5 23.0----
2024-05-21 02:36 pmESE 4.1 5.1----1016.2- 20.5 23.0----
2024-05-21 02:30 pmESE 4.6 5.1----1016.2- 20.3 23.0----
2024-05-21 02:24 pmESE 4.1 4.6----1016.2- 20.4 23.0----
2024-05-21 02:18 pmESE 4.1 5.1----1016.2- 20.1 23.0----
2024-05-21 02:12 pmESE 4.1 5.1----1016.3- 20.1 23.0----
2024-05-21 02:06 pmESE 4.6 5.1----1016.3- 20.2 23.0----
2024-05-21 02:00 pmESE 4.6 5.1----1016.3 -0.9 19.9 23.0----
2024-05-21 01:54 pmESE 4.1 5.1----1016.3- 19.8 23.0----
2024-05-21 01:48 pm E 4.1 5.1----1016.4- 19.7 23.0----
2024-05-21 01:42 pm E 3.6 5.1----1016.4- 19.7 23.0----
2024-05-21 01:36 pmESE 4.1 4.6----1016.5- 19.6 22.9----
2024-05-21 01:30 pmESE 3.6 4.6----1016.5- 19.7 22.9----
2024-05-21 01:24 pmESE 3.6 4.1----1016.6- 19.6 22.9----
2024-05-21 01:18 pmESE 3.6 4.1----1016.7- 19.6 22.9----
2024-05-21 01:12 pmESE 3.6 4.6----1016.7- 19.6 22.9----
2024-05-21 01:06 pmESE 4.1 4.6----1016.7- 19.7 22.8----
2024-05-21 01:00 pmESE 4.1 4.6----1016.7 -0.4 19.8 22.8----
2024-05-21 12:54 pmESE 4.1 4.6----1016.8- 19.7 22.8----